User: anonymous   Login
Location: Caltech
(34.1382°N, 118.1253°W)
Time: 11:43:09
(UTC-07:00)
Language:

Uribyol 2 - Orbit

View from above orbital plane
View from above orbital plane
View from above satellite
View from above satellite

Ground track
Ground track

The orbit data is extracted from the following two-line orbital elements,

1 22828U 93061F   16125.84347969  .00000040  00000-0  32605-4 0  9990
2 22828  98.7407  80.9442 0010792  49.4184 310.7936 14.30586000147553
Epoch (UTC): 04 May 2016 20:14:36
Eccentricity: 0.0010792
inclination: 98.7407°
perigee height: 782 km
apogee height: 797 km
right ascension of ascending node: 80.9442°
argument of perigee: 49.4184°
revolutions per day: 14.30586000
mean anomaly at epoch: 310.7936°
orbit number at epoch: 14755

The dashed part of the orbit path shows where the satellite is in the earth's shadow,  

DLR